Weather History for Keene, NH

Change the Weather History Date:

Wednesday, July 3, 2013

  Actual Average Record
Temperature  
Mean Temperature 76 °F -  
Max Temperature 84 °F 81 °F 99 °F (1966)
Min Temperature 68 °F 55 °F 38 °F (1929)
Cooling Degree Days 11    
Growing Degree Days 26 (Base 50)    
Moisture  
Dew Point 66 °F    
Average Humidity 73    
Maximum Humidity 83    
Minimum Humidity 58    
Precipitation  
Precipitation 0.70 in - - ()
Sea Level Pressure  
Sea Level Pressure 30.17 in    
Wind  
Wind Speed 4 mph (SW)    
Max Wind Speed 12 mph    
Max Gust Speed -    
Visibility 10 miles    
Events      
Averages and records for this station are not official NWS values.
T = Trace of Precipitation, MM = Missing Value Source: NWS Daily Summary

Daily Weather History Graph

Daily Weather History Graph

Search for Another Location

Airport:

Trip Planner

Search our weather history database for the weather conditions in past years. The results will help you decide how hot, cold, wet, or windy it might be!

Date:

Astronomy

Jul. 03, 2013 Rise Set
Actual Time 5:15 AM EDT 8:31 PM EDT
Civil Twilight 4:40 AM EDT 9:06 PM EDT
Nautical Twilight 3:55 AM EDT 9:51 PM EDT
Astronomical Twilight 2:59 AM EDT 10:46 PM EDT
Moon 1:54 AM EDT (7/3) 4:36 PM EDT (7/3)
Length of Visible Light 16h 25m
Length of Day
15h 15m
Waning Crescent, 18% of the Moon is Illuminated
Jul 3
Waning Crescent
Jul 8
New
Jul 15
First Quarter
Jul 22
Full
Jul 29
Last Quarter

Hourly Weather History & Observations

Time (EDT) Temp. Heat Index Dew Point Humidity Pressure Visibility Wind Dir Wind Speed Gust Speed Precip Events Conditions
12:15 AM 69.8 °F - 62.6 °F 78% 30.17 in 10.0 mi WNW 5.8 mph - N/A   Overcast
12:35 AM 69.8 °F - 62.6 °F 78% 30.17 in 10.0 mi NE 3.5 mph - N/A   Overcast
12:55 AM 68.0 °F - 62.6 °F 83% 30.16 in 10.0 mi ENE 6.9 mph - N/A   Overcast
1:15 AM 68.0 °F - 62.6 °F 83% 30.16 in 10.0 mi North 3.5 mph - N/A   Overcast
1:35 AM 68.0 °F - 62.6 °F 83% 30.16 in 10.0 mi North 4.6 mph - N/A   Overcast
1:55 AM 69.8 °F - 62.6 °F 78% 30.16 in 10.0 mi NNW 3.5 mph - N/A   Overcast
2:15 AM 68.0 °F - 62.6 °F 83% 30.15 in 10.0 mi NNW 3.5 mph - N/A   Overcast
2:35 AM 68.0 °F - 62.6 °F 83% 30.16 in 10.0 mi Calm Calm - N/A   Overcast
2:55 AM 68.0 °F - 62.6 °F 83% 30.15 in 10.0 mi Calm Calm - N/A   Overcast
3:15 AM 68.0 °F - 62.6 °F 83% 30.16 in 10.0 mi Calm Calm - N/A   Overcast
3:35 AM 68.0 °F - 62.6 °F 83% 30.15 in 10.0 mi Calm Calm - N/A   Overcast
3:55 AM 68.0 °F - 62.6 °F 83% 30.15 in 10.0 mi North 4.6 mph - N/A   Mostly Cloudy
4:15 AM 68.0 °F - 62.6 °F 83% 30.15 in 9.0 mi Calm Calm - N/A   Mostly Cloudy
4:35 AM 68.0 °F - 62.6 °F 83% 30.14 in 8.0 mi Calm Calm - N/A   Mostly Cloudy
4:55 AM 68.0 °F - 62.6 °F 83% 30.15 in 10.0 mi Calm Calm - N/A   Mostly Cloudy
5:15 AM 68.0 °F - 62.6 °F 83% 30.15 in 7.0 mi Calm Calm - N/A   Mostly Cloudy
5:35 AM 68.0 °F - 62.6 °F 83% 30.16 in 6.0 mi Calm Calm - N/A   Overcast
5:55 AM 68.0 °F - 62.6 °F 83% 30.17 in 5.0 mi Calm Calm - N/A   Overcast
6:15 AM 69.8 °F - 64.4 °F 83% 30.18 in 6.0 mi Calm Calm - N/A   Overcast
6:35 AM 69.8 °F - 64.4 °F 83% 30.18 in 8.0 mi Calm Calm - N/A   Overcast
7:15 AM 69.8 °F - 64.4 °F 83% 30.18 in 9.0 mi Calm Calm - N/A   Mostly Cloudy
7:35 AM 71.6 °F - 66.2 °F 83% 30.18 in 10.0 mi Calm Calm - N/A   Mostly Cloudy
7:55 AM 75.2 °F - 66.2 °F 73% 30.19 in 10.0 mi Calm Calm - N/A   Mostly Cloudy
8:15 AM 75.2 °F - 66.2 °F 73% 30.19 in 10.0 mi Calm Calm - N/A   Overcast
8:35 AM 75.2 °F - 66.2 °F 73% 30.19 in 10.0 mi Calm Calm - N/A   Overcast
8:55 AM 77.0 °F - 66.2 °F 69% 30.20 in 10.0 mi SW 6.9 mph - N/A   Overcast
9:15 AM 77.0 °F - 66.2 °F 69% 30.20 in 10.0 mi SW 8.1 mph - N/A   Mostly Cloudy
9:35 AM 78.8 °F - 66.2 °F 65% 30.20 in 10.0 mi SW 5.8 mph - N/A   Scattered Clouds
9:55 AM 78.8 °F - 66.2 °F 65% 30.20 in 5.0 mi SW 8.1 mph - N/A   Partly Cloudy
10:15 AM 78.8 °F - 66.2 °F 65% 30.20 in 10.0 mi SSW 10.4 mph - N/A   Scattered Clouds
10:35 AM 78.8 °F - 66.2 °F 65% 30.20 in 10.0 mi SW 9.2 mph - N/A   Scattered Clouds
10:55 AM 78.8 °F - 66.2 °F 65% 30.20 in 10.0 mi South 11.5 mph - N/A   Scattered Clouds
11:15 AM 78.8 °F - 66.2 °F 65% 30.21 in 10.0 mi SSW 9.2 mph - N/A   Partly Cloudy
11:35 AM 78.8 °F - 66.2 °F 65% 30.20 in 10.0 mi SSW 8.1 mph - N/A   Clear
11:55 AM 80.6 °F 82.7 °F 66.2 °F 61% 30.19 in 10.0 mi SW 10.4 mph - N/A   Partly Cloudy
12:15 PM 80.6 °F 82.7 °F 66.2 °F 61% 30.19 in 10.0 mi SW 5.8 mph - N/A   Partly Cloudy
12:35 PM 82.4 °F 85.4 °F 68.0 °F 62% 30.19 in 10.0 mi SW 6.9 mph - N/A   Mostly Cloudy
1:15 PM 82.4 °F 84.6 °F 66.2 °F 58% 30.18 in 5.0 mi SW 5.8 mph - N/A   Overcast
1:35 PM 80.6 °F 83.2 °F 68.0 °F 65% 30.18 in 10.0 mi SW 6.9 mph - N/A   Overcast
1:55 PM 82.4 °F 85.4 °F 68.0 °F 62% 30.17 in 10.0 mi West 3.5 mph - N/A   Overcast
2:15 PM 82.4 °F 85.4 °F 68.0 °F 62% 30.17 in 10.0 mi SW 8.1 mph - N/A   Overcast
2:35 PM 82.4 °F 85.4 °F 68.0 °F 62% 30.17 in 10.0 mi SW 3.5 mph - N/A   Overcast
2:55 PM 84.2 °F 88.4 °F 69.8 °F 62% 30.16 in 10.0 mi Calm Calm - N/A   Mostly Cloudy
3:15 PM 84.2 °F 88.4 °F 69.8 °F 62% 30.16 in 10.0 mi West 5.8 mph - N/A   Overcast
3:35 PM 84.2 °F 88.4 °F 69.8 °F 62% 30.16 in 10.0 mi SSW 6.9 mph - N/A   Overcast
3:55 PM 84.2 °F 88.4 °F 69.8 °F 62% 30.15 in 10.0 mi SW 3.5 mph - N/A   Overcast
4:15 PM 84.2 °F 88.4 °F 69.8 °F 62% 30.15 in 10.0 mi SSW 9.2 mph - N/A   Overcast
4:35 PM 84.2 °F 88.4 °F 69.8 °F 62% 30.14 in 10.0 mi WSW 8.1 mph - N/A   Overcast
4:55 PM 84.2 °F 87.3 °F 68.0 °F 58% 30.14 in 10.0 mi SSW 9.2 mph - N/A   Overcast
5:15 PM 84.2 °F 87.3 °F 68.0 °F 58% 30.14 in 10.0 mi SW 8.1 mph - N/A   Mostly Cloudy
5:35 PM 84.2 °F 88.4 °F 69.8 °F 62% 30.14 in 10.0 mi SSW 9.2 mph - N/A   Scattered Clouds
5:55 PM 84.2 °F 88.4 °F 69.8 °F 62% 30.13 in 10.0 mi SSW 8.1 mph - N/A   Partly Cloudy
6:15 PM 84.2 °F 88.4 °F 69.8 °F 62% 30.13 in 10.0 mi SW 9.2 mph - N/A   Clear
6:55 PM 84.2 °F 88.4 °F 69.8 °F 62% 30.13 in 10.0 mi SSW 8.1 mph - N/A   Clear
7:35 PM 82.4 °F 86.3 °F 69.8 °F 66% 30.14 in 10.0 mi South 4.6 mph - N/A   Clear
7:55 PM 80.6 °F 83.9 °F 69.8 °F 70% 30.15 in 10.0 mi SSW 3.5 mph - N/A   Clear
8:15 PM 78.8 °F - 69.8 °F 74% 30.15 in 10.0 mi South 4.6 mph - N/A   Clear
8:35 PM 77.0 °F - 68.0 °F 74% 30.16 in 10.0 mi Calm Calm - N/A   Clear
8:55 PM 75.2 °F - 68.0 °F 78% 30.16 in 10.0 mi Calm Calm - N/A   Clear
9:15 PM 75.2 °F - 68.0 °F 78% 30.17 in 10.0 mi Calm Calm - N/A   Clear
9:35 PM 73.4 °F - 68.0 °F 83% 30.18 in 10.0 mi Calm Calm - N/A   Clear
10:35 PM 71.6 °F - 66.2 °F 83% 30.18 in 10.0 mi SSW 3.5 mph - N/A   Clear
10:55 PM 71.6 °F - 66.2 °F 83% 30.18 in 9.0 mi SSW 3.5 mph - N/A   Clear
11:15 PM 71.6 °F - 66.2 °F 83% 30.19 in 10.0 mi Calm Calm - N/A   Clear
11:35 PM 71.6 °F - 66.2 °F 83% 30.19 in 10.0 mi Calm Calm - N/A   Clear
11:55 PM 71.6 °F - 66.2 °F 83% 30.19 in 9.0 mi Calm Calm - N/A   Clear